Regional Weather Roundup
Issued by NWS Kansas City/Pleasant Hill, MO

Home | Current Version | Previous Version | Text Only | Print | Product List | Glossary On
Versions: 1 2 3 4 5 6 7 8 9 10 11 12 13 14 15 16 17 18 19 20 21 22 23 24 25 26 27 28 29 30 31 32 33 34 35 36 37 38 39 40 41 42 43 44 45 46 47 48 49 50
000
ASUS43 KEAX 260511
RWREAX

WEATHER ROUNDUP FOR EASTERN KANSAS AND NORTHWEST MISSOURI
NATIONAL WEATHER SERVICE KANSAS CITY/PLEASANT HILL MO
1200 AM CDT SAT JUL 26 2014

KSZ040-057-103>105-MOZ028-029-037-043-260600-
...KANSAS CITY METROPOLITAN AREA...

CITY           SKY/WX    TMP DP  RH WIND       PRES   REMARKS
K.C. INTL      PTCLDY    83  74  74 SW16      29.81R
K.C. DOWNTOWN  CLEAR     85  74  69 SW17      29.80R HX  92
LEES SUMMIT    PTCLDY    82  73  74 SW14G24   29.83S
OLATHE - IXD   CLEAR     82  74  76 S14       29.83S
OLATHE - OJC   CLEAR     81  73  76 S13       29.83S
LAWRENCE       CLEAR     86  73  65 S12       29.81R HX  93

$$

MOZ001>008-011>017-020>025-030>033-038>040-044>046-053-054-260600-
...NORTHERN AND CENTRAL MISSOURI...

CITY           SKY/WX    TMP DP  RH WIND       PRES   REMARKS
ST. JOSEPH     CLEAR     82  73  74 SW10      29.77S
MOSBY          CLEAR     84  72  65 S9        29.80S
WARRENSBURG    CLEAR     79  70  73 S8        29.84S
WHITEMAN AFB   CLEAR     82  65  56 SW18      29.84R
CLINTON        CLEAR     82  72  69 S9        29.87R
SEDALIA        CLEAR     81  70  69 SW10      29.86S
WARSAW         NOT AVBL
MARSHALL       CLEAR     82  73  74 SW10      29.83F
CHILLICOTHE      N/A     83  73  72 S10       29.80S
MOBERLY        CLEAR     75  70  83 SE5       29.85S
KIRKSVILLE     CLEAR     72  69  90 S7        29.83F

$$

MOZ041-047>049-056>058-063>065-088>090-097-260600-
...EASTERN AND SOUTHERN MISSOURI...

CITY           SKY/WX    TMP DP  RH WIND       PRES   REMARKS
ST. LOUIS INTL CLEAR     76  65  68 S9        29.91F
SPIRIT OF STL  CLEAR     73  65  75 S6        29.89F
COLUMBIA       CLEAR     77  71  82 S8        29.87R
JEFFERSON CITY CLEAR     79  70  74 SE5       29.87R
MEXICO         CLEAR    N/A N/A N/A SE7       29.87S
HANNIBAL       CLEAR     73  64  73 S6        29.85S
ROLLA          CLEAR     75  67  76 S12       29.92R
LEBANON        CLEAR     77  70  78 S9        29.93R
OSAGE BEACH    CLEAR     79  70  73 S5        29.90R
SPRINGFIELD    CLEAR     76  70  82 S10       29.93R
BRANSON        CLEAR     73  70  88 S5        29.97S
JOPLIN         CLEAR     80  71  74 S16       29.91S
WEST PLAINS    CLEAR     73  68  84 S7        29.98S
MALDEN         CLEAR     73  66  78 S7        29.97S

$$

IAZ060-094-KSZ022-034>040-054-083-096-NEZ052-066-093-260600-
...KANSAS...SOUTHEAST NEBRASKA AND IOWA...

CITY           SKY/WX    TMP DP  RH WIND       PRES   REMARKS
TOPEKA         CLEAR     87  73  62 S10G23    29.80R HX  94
MANHATTAN      PTCLDY    87  70  56 S13       29.79R HX  92
EMPORIA        PTCLDY    82  73  74 S18       29.83S
CHANUTE        CLEAR     81  72  74 S16G23    29.87S
WICHITA        PTCLDY    84  68  58 S14       29.84S
OMAHA          MOCLDY    79  72  79 NE3       29.79R
LINCOLN        CLEAR     78  73  84 N5        29.80R
FALLS CITY     CLEAR     85  71  63 SW7       29.77R HX  90
LAMONI         CLEAR     75  72  90 SE9       29.78S
DES MOINES     PTCLDY    75  70  84 E7        29.79S

$$



USA.gov is the U.S. government's official web portal to all federal, state and local government web resources and services.